Change the Weather History Date:

Tuesday, December 4, 2012

  Actual Average Record
Temperature  
Mean Temperature 14 °F -  
Max Temperature 19 °F 26 °F 44 °F (2004)
Min Temperature 10 °F 11 °F -5 °F (2000)
Degree Days  
Heating Degree Days 50    
Moisture  
Dew Point 7 °F    
Average Humidity 71    
Maximum Humidity 84    
Minimum Humidity 62    
Precipitation  
Precipitation 0.00 in - - ()
Sea Level Pressure  
Sea Level Pressure 30.26 in    
Wind  
Wind Speed 11 mph (North)    
Max Wind Speed 17 mph    
Max Gust Speed 26 mph    
Visibility 10 miles    
Events      
Averages and records for this station are not official NWS values.
T = Trace of Precipitation, MM = Missing Value Source: NWS Daily Summary

Daily Weather History Graph

Daily Weather History Graph

Search for Another Location

Airport or City:

Trip Planner

Search our weather history database for the weather conditions in past years. The results will help you decide how hot, cold, wet, or windy it might be!

Date:

Astronomy

Dec. 04, 2012 Rise Set
Actual Time 8:02 AM CST 4:37 PM CST
Civil Twilight 7:26 AM CST 5:13 PM CST
Nautical Twilight 6:47 AM CST 5:52 PM CST
Astronomical Twilight 6:10 AM CST 6:29 PM CST
Moon 10:44 PM CST (12/4) 11:41 AM CST (12/4)
Length of Visible Light 9h 46m
Length of Day
8h 35m
Waning Gibbous, 69% of the Moon is Illuminated
Dec 4
Waning Gibbous
Dec 6
Last Quarter
Dec 13
New
Dec 19
First Quarter
Dec 28
Full

Hourly Weather History & Observations

Time (CST) Temp. Windchill Dew Point Humidity Pressure Visibility Wind Dir Wind Speed Gust Speed Precip Events Conditions
12:55 AM 14.0 °F -0.8 °F 5.7 °F 70% 30.00 in 10.0 mi NNW 13.8 mph - N/A   Clear
1:55 AM 13.5 °F -2.1 °F 4.8 °F 68% 30.04 in 10.0 mi NW 15.0 mph - N/A   Clear
2:55 AM 14.7 °F -1.1 °F 4.8 °F 65% 30.07 in 10.0 mi NNW 16.1 mph 21.9 mph N/A   Overcast
3:55 AM 15.4 °F 0.4 °F 5.4 °F 64% 30.08 in 10.0 mi NNW 15.0 mph 20.7 mph N/A   Overcast
4:55 AM 15.4 °F 1.6 °F 5.5 °F 65% 30.11 in 10.0 mi NNW 12.7 mph 23.0 mph N/A   Overcast
5:55 AM 14.2 °F -2.3 °F 5.7 °F 69% 30.14 in 10.0 mi NNW 17.3 mph 26.5 mph N/A   Overcast
6:55 AM 13.1 °F -2.0 °F 4.8 °F 70% 30.17 in 10.0 mi NNW 13.8 mph 20.7 mph N/A   Clear
7:55 AM 11.8 °F -0.7 °F 4.5 °F 72% 30.22 in 10.0 mi NNW 9.2 mph - N/A   Clear
8:55 AM 12.6 °F 0.2 °F 5.0 °F 72% 30.26 in 10.0 mi NW 9.2 mph - N/A   Clear
9:55 AM 14.0 °F 0.5 °F 4.1 °F 65% 30.28 in 10.0 mi North 11.5 mph 18.4 mph N/A   Clear
10:55 AM 15.3 °F 1.4 °F 5.0 °F 64% 30.32 in 10.0 mi NNW 12.7 mph - N/A   Clear
11:55 AM 17.2 °F 3.3 °F 6.1 °F 62% 30.32 in 10.0 mi North 13.8 mph - N/A   Clear
12:55 PM 18.3 °F 8.2 °F 7.2 °F 62% 30.31 in 10.0 mi North 8.1 mph - N/A   Clear
1:55 PM 19.4 °F 10.4 °F 8.2 °F 62% 30.32 in 10.0 mi North 6.9 mph - N/A   Clear
2:55 PM 19.4 °F 12.8 °F 8.8 °F 63% 30.33 in 10.0 mi Variable 4.6 mph - N/A   Clear
3:55 PM 18.9 °F 10.8 °F 9.1 °F 66% 30.35 in 10.0 mi North 5.8 mph - N/A   Clear
4:55 PM 14.7 °F 7.3 °F 8.2 °F 75% 30.37 in 10.0 mi NE 4.6 mph - N/A   Clear
5:55 PM 14.2 °F 4.1 °F 8.6 °F 78% 30.36 in 10.0 mi ENE 6.9 mph - N/A   Clear
6:55 PM 14.0 °F 6.5 °F 8.6 °F 79% 30.37 in 10.0 mi ENE 4.6 mph - N/A   Clear
7:55 PM 12.4 °F - 8.1 °F 83% 30.38 in 10.0 mi Calm Calm - N/A   Clear
8:55 PM 12.2 °F 6.1 °F 8.1 °F 83% 30.38 in 10.0 mi SE 3.5 mph - N/A   Clear
9:55 PM 10.8 °F 4.5 °F 6.8 °F 84% 30.39 in 10.0 mi SSE 3.5 mph - N/A   Clear
10:55 PM 11.7 °F 3.7 °F 7.7 °F 84% 30.39 in 10.0 mi SSE 4.6 mph - N/A   Clear
11:55 PM 13.5 °F 2.2 °F 9.1 °F 83% 30.36 in 10.0 mi SSE 8.1 mph - N/A   Clear